Location: Culleoka
(33.1312°N, 96.4919°W)
Time: 22:50:10
(UTC+00:00)

Okean 1 - Pass Details

Date: 05 July 2022
Orbit: 532 x 553 km, 82.5° (Epoch: 15 August)

Event Time Altitude Azimuth Distance (km) Brightness Sun altitude
Rises 10:21:35 0° 335° (NNW) 2,683 7.0 -11.6°
Reaches altitude 10° 10:24:11 10° 318° (NW) 1,786 5.9 -11.1°
Maximum altitude 10:27:01 19° 271° (W) 1,289 4.7 -10.7°
Enters shadow 10:28:49 15° 237° (WSW) 1,506 4.9 -10.4°
